Content
SEND FEEDBACK

Daily
Averages
Monthly
Summary
Germany

ANSBACH, GERMANY


Home > Europe > Germany
Elevation: 1532 feet     Latitude: 49 19N     Longitude: 010 38E

WEATHER
 
SELECT A DAY
Number of Records: 70,246;   Date Range: 7/3/96 - 9/15/14
 
SHARE

PRINT THIS DATA

[ ← Previous Day ]
WEATHER ALMANAC - JANUARY 31, 2013
[ Next Day → ]
[ °C ]   °F
Weather ElementAverageHighLow
Temperature42.9 °F46.9 °F (2:58 pm)39.6 °F (7:55 am)
Dewpoint36.9 °F39.4 °F (7:58 pm)33.8 °F (3:58 pm)
Humidity79.8 %93 % (8:39 pm)61 % (3:58 pm)
Barometer30.00 in30.13 in (7:55 am)29.91 in (6:03 pm)
Wind Speed22.2 mph29.9 mph (3:58 pm)
Wind Gust36.8 mph (3:58 pm)
Weather ElementAverage
Visibility6.2 mi
Wind DirectionWSW (251.4 °)

Weather ElementTotal
Precipitation0.05 in
Heating Degree Days21.8 (Base 65)
Averaged from 21 records on January 31, 2013
WEATHER CONDITIONS BREAKOUT
WIND DIRECTION BREAKOUT
WEATHER BY HOUR - JANUARY 31, 2013
[ °C ]   °F
Local TimeTemperatureDewpointHumidityBarometerVisibilityWind DirectionWind SpeedGust SpeedPrecipitationEventsConditions
7:55 AM39.6 °F34.2 °F81 %30.13 in6.2 miWSW (250°)24.2 mph33.4 mphMostly Cloudy
8:55 AM39.7 °F34.7 °F82 %30.12 in6.2 miWest (260°)21.9 mph31.1 mphMostly Cloudy
9:59 AM39.7 °F34.7 °F82 %30.12 in6.2 miWest (260°)23.0 mph33.4 mphMostly Cloudy
10:59 AM42.6 °F35.2 °F75 %30.10 in6.2 miWSW (250°)20.7 mph28.8 mphMostly Cloudy
11:56 AM44.1 °F36.1 °F74 %30.07 in6.2 miWSW (250°)19.6 mph29.9 mphPartly Cloudy
1:58 PM45.1 °F35.2 °F68 %30.05 in6.2 miSW (230°)18.4 mphScattered Clouds
2:58 PM46.9 °F36.7 °F68 %29.99 in6.2 miSW (230°)16.1 mph24.2 mphScattered Clouds
3:58 PM46.8 °F33.8 °F61 %29.95 in6.2 miWSW (250°)29.9 mph36.8 mphPartly Cloudy
4:58 PM46.4 °F33.8 °F62 %29.96 in6.2 miWSW (250°)23.0 mph34.5 mphScattered Clouds
6:03 PM44.6 °F37.4 °F76 %29.91 in6.2 miWSW (240°)25.3 mph34.5 mphRainLight Rain
6:20 PM42.8 °F37.4 °F81 %29.91 in6.2 miWSW (250°)21.9 mph31.1 mphOvercast
6:58 PM43.5 °F37.9 °F81 %29.99 in6.2 miWSW (250°)26.5 mph35.7 mph0.00 inMostly Cloudy
7:11 PM42.8 °F37.4 °F81 %29.91 in6.2 miWSW (240°)25.3 mph34.5 mphRainLight Rain
7:44 PM42.8 °F39.2 °F87 %29.91 in6.2 miWSW (250°)23.0 mph31.1 mphOvercast
7:58 PM42.4 °F39.4 °F89 %29.99 in6.2 miWest (260°)20.7 mph32.2 mph0.02 inOvercast
7:59 PM42.8 °F39.2 °F87 %29.91 in6.2 miWest (260°)21.9 mph32.2 mphRainLight Rain
8:39 PM41.0 °F39.2 °F93 %29.92 in6.2 miWest (260°)20.7 mph28.8 mphMostly Cloudy
8:58 PM41.4 °F38.8 °F91 %30.01 in6.2 miWSW (250°)20.7 mph26.5 mph0.02 inScattered Clouds
9:58 PM42.4 °F38.7 °F86 %30.01 in6.2 miWest (260°)20.7 mph29.9 mph0.01 inClear
10:58 PM42.4 °F38.7 °F86 %30.01 in6.2 miWest (270°)20.7 mph32.2 mphOvercast
11:58 PM41.7 °F37.6 °F85 %30.01 in6.2 miWest (260°)23.0 mph31.1 mphScattered Clouds
Hourly data recorded from ETEB, located miles away from Ansbach, Germany







STORIES FROM OUR PARTNERS